User: anonymous   Login
Location: Clinton NY
(43.0598°N, 75.3602°W)
Time: 10:22:42
(UTC-04:00)
Language:

Cosmos-2242 - Orbit

View from above orbital plane
View from above orbital plane
View from above satellite
View from above satellite

Ground track
Ground track

The orbit data is extracted from the following two-line orbital elements,

1 22626U 93024A   15213.43741115  .00000662  00000-0  70988-4 0  9994
2 22626 082.5245 328.0463 0018119 233.5678 126.3869 14.87062356204212
Epoch (UTC): 01 August 2015 10:29:52
Eccentricity: 0.0018119
inclination: 82.5245°
perigee height: 594 km
apogee height: 620 km
right ascension of ascending node: 328.0463°
argument of perigee: 233.5678°
revolutions per day: 14.87062356
mean anomaly at epoch: 126.3869°
orbit number at epoch: 20421

The dashed part of the orbit path shows where the satellite is in the earth's shadow,  

DLR